HJ523 SKBQ-SKCG

Flight info

Callsign HJ523
Flight time 1h 11m
Altitude 3000
Route CTG3E CTG
Aircraft C172/L-SFG/C

Departure

Time 2026-04-26 18:25
Airport Ernesto Cortissoz International Airport (SKBQ)

Arrival

Time 2026-04-26 19:36
Airport Rafael Nuñez International Airport (SKCG)
Time Latitude Longitude Altitude Speed Heading
2026-04-26 17:54 10.88721 -74.77560 87 ft 0 kts 219°
2026-04-26 18:12 10.88725 -74.77556 89 ft 2 kts 219°
2026-04-26 18:12 10.88738 -74.77546 89 ft 2 kts 219°
2026-04-26 18:13 10.88743 -74.77542 88 ft 0 kts 219°
2026-04-26 18:13 10.88742 -74.77543 88 ft 1 kts 221°
2026-04-26 18:13 10.88726 -74.77555 89 ft 0 kts 216°
2026-04-26 18:14 10.88711 -74.77545 88 ft 3 kts 86°
2026-04-26 18:14 10.88723 -74.77535 87 ft 3 kts 17°
2026-04-26 18:14 10.88748 -74.77523 89 ft 5 kts 36°
2026-04-26 18:15 10.88788 -74.77496 89 ft 8 kts 357°
2026-04-26 18:15 10.88834 -74.77544 87 ft 11 kts 313°
2026-04-26 18:15 10.88883 -74.77602 87 ft 11 kts 309°
2026-04-26 18:15 10.88918 -74.77665 87 ft 10 kts 256°
2026-04-26 18:16 10.88874 -74.77710 89 ft 9 kts 216°
2026-04-26 18:16 10.88792 -74.77800 87 ft 10 kts 270°
2026-04-26 18:16 10.88818 -74.77861 86 ft 8 kts 309°
2026-04-26 18:17 10.88841 -74.77897 89 ft 5 kts 283°
2026-04-26 18:17 10.88834 -74.77930 89 ft 6 kts 242°
2026-04-26 18:17 10.88798 -74.77977 91 ft 10 kts 229°
2026-04-26 18:17 10.88732 -74.78035 93 ft 15 kts 213°
2026-04-26 18:18 10.88641 -74.78118 95 ft 18 kts 217°
2026-04-26 18:18 10.88555 -74.78195 99 ft 15 kts 219°
2026-04-26 18:18 10.88476 -74.78258 99 ft 14 kts 219°
2026-04-26 18:18 10.88400 -74.78320 99 ft 14 kts 219°
2026-04-26 18:19 10.88331 -74.78379 100 ft 12 kts 221°
2026-04-26 18:19 10.88269 -74.78431 101 ft 11 kts 219°
2026-04-26 18:19 10.88211 -74.78481 101 ft 11 kts 217°
2026-04-26 18:19 10.88153 -74.78532 101 ft 11 kts 219°
2026-04-26 18:20 10.88096 -74.78581 101 ft 10 kts 220°
2026-04-26 18:20 10.88048 -74.78623 103 ft 8 kts 222°
2026-04-26 18:20 10.88003 -74.78655 103 ft 8 kts 218°
2026-04-26 18:20 10.87977 -74.78678 103 ft 7 kts 224°
2026-04-26 18:21 10.87927 -74.78728 103 ft 8 kts 221°
2026-04-26 18:21 10.87912 -74.78776 104 ft 7 kts 269°
2026-04-26 18:21 10.87909 -74.78826 104 ft 7 kts 266°
2026-04-26 18:21 10.87907 -74.78864 104 ft 0 kts 266°
2026-04-26 18:23 10.87906 -74.78870 104 ft 4 kts 265°
2026-04-26 18:23 10.87908 -74.78940 104 ft 13 kts 294°
2026-04-26 18:24 10.87991 -74.78931 102 ft 22 kts 40°
2026-04-26 18:24 10.88233 -74.78710 99 ft 70 kts 39°
2026-04-26 18:24 10.88685 -74.78316 150 ft 97 kts 43°
2026-04-26 18:24 10.89166 -74.77892 472 ft 81 kts 33°
2026-04-26 18:25 10.89576 -74.77512 668 ft 88 kts 41°
2026-04-26 18:25 10.90050 -74.77041 800 ft 96 kts 42°
2026-04-26 18:25 10.90546 -74.76515 904 ft 106 kts 44°
2026-04-26 18:25 10.91070 -74.75976 1072 ft 111 kts 39°
2026-04-26 18:26 10.91637 -74.75481 1268 ft 108 kts 36°
2026-04-26 18:26 10.92222 -74.75020 1489 ft 105 kts 32°
2026-04-26 18:26 10.92809 -74.74577 1663 ft 107 kts 36°
2026-04-26 18:26 10.93381 -74.74095 1885 ft 104 kts 39°
2026-04-26 18:27 10.93927 -74.73593 2036 ft 110 kts 39°
2026-04-26 18:27 10.94520 -74.73136 2268 ft 103 kts 32°
2026-04-26 18:27 10.95156 -74.72812 2434 ft 104 kts 10°
2026-04-26 18:27 10.95867 -74.72797 2617 ft 99 kts 340°
2026-04-26 18:28 10.96415 -74.73172 2758 ft 97 kts 304°
2026-04-26 18:28 10.96706 -74.73755 2957 ft 92 kts 300°
2026-04-26 18:28 10.97145 -74.74280 3097 ft 95 kts 311°
2026-04-26 18:28 10.97558 -74.74780 3280 ft 96 kts 301°
2026-04-26 18:29 10.97898 -74.75369 3469 ft 92 kts 295°
2026-04-26 18:29 10.98120 -74.75973 3621 ft 94 kts 286°
2026-04-26 18:29 10.98316 -74.76609 3790 ft 94 kts 289°
2026-04-26 18:29 10.98526 -74.77249 3905 ft 96 kts 284°
2026-04-26 18:30 10.98649 -74.77900 4019 ft 94 kts 277°
2026-04-26 18:30 10.98715 -74.78573 4039 ft 98 kts 275°
2026-04-26 18:30 10.98827 -74.79263 4099 ft 98 kts 283°
2026-04-26 18:30 10.99024 -74.79937 4136 ft 101 kts 285°
2026-04-26 18:31 10.99064 -74.80095 4154 ft 100 kts 283°
2026-04-26 18:32 10.99123 -74.80726 4226 ft 98 kts 272°
2026-04-26 18:32 10.99224 -74.81406 4263 ft 99 kts 285°
2026-04-26 18:32 10.99357 -74.82079 4327 ft 97 kts 279°
2026-04-26 18:32 10.99442 -74.82771 4369 ft 98 kts 278°
2026-04-26 18:33 10.99561 -74.83450 4465 ft 97 kts 279°
2026-04-26 18:33 10.99592 -74.84132 4518 ft 97 kts 274°
2026-04-26 18:33 10.99656 -74.84804 4607 ft 95 kts 275°
2026-04-26 18:33 10.99717 -74.85488 4637 ft 98 kts 274°
2026-04-26 18:34 10.99728 -74.86173 4687 ft 98 kts 270°
2026-04-26 18:34 10.99746 -74.86881 4724 ft 98 kts 272°
2026-04-26 18:34 10.99687 -74.87571 4769 ft 100 kts 262°
2026-04-26 18:34 10.99575 -74.88267 4824 ft 98 kts 263°
2026-04-26 18:35 10.99441 -74.88959 4826 ft 102 kts 259°
2026-04-26 18:35 10.99292 -74.89654 4785 ft 100 kts 262°
2026-04-26 18:35 10.99172 -74.90358 4714 ft 101 kts 262°
2026-04-26 18:35 10.99012 -74.91057 4662 ft 101 kts 254°
2026-04-26 18:36 10.98758 -74.91712 4608 ft 99 kts 250°
2026-04-26 18:36 10.98489 -74.92364 4543 ft 100 kts 250°
2026-04-26 18:36 10.98234 -74.93028 4475 ft 101 kts 252°
2026-04-26 18:36 10.97966 -74.93684 4418 ft 100 kts 248°
2026-04-26 18:37 10.97660 -74.94321 4341 ft 101 kts 243°
2026-04-26 18:37 10.97305 -74.94948 4256 ft 102 kts 244°
2026-04-26 18:37 10.96957 -74.95572 4212 ft 101 kts 242°
2026-04-26 18:37 10.96590 -74.96187 4133 ft 102 kts 242°
2026-04-26 18:38 10.96223 -74.96787 4087 ft 101 kts 243°
2026-04-26 18:38 10.95853 -74.97397 4046 ft 101 kts 241°
2026-04-26 18:38 10.95475 -74.97997 4018 ft 102 kts 240°
2026-04-26 18:38 10.95110 -74.98620 4000 ft 100 kts 242°
2026-04-26 18:39 10.94871 -74.99018 3992 ft 99 kts 240°
2026-04-26 18:39 10.94317 -74.99802 3848 ft 104 kts 234°
2026-04-26 18:39 10.93809 -75.00307 3897 ft 101 kts 227°
2026-04-26 18:39 10.93270 -75.00796 3864 ft 104 kts 226°
2026-04-26 18:40 10.92923 -75.01123 3914 ft 101 kts 227°
2026-04-26 18:40 10.92397 -75.01621 3908 ft 106 kts 227°
2026-04-26 18:40 10.91870 -75.02113 4000 ft 101 kts 226°
2026-04-26 18:40 10.91346 -75.02618 3987 ft 106 kts 229°
2026-04-26 18:41 10.90809 -75.03109 4057 ft 103 kts 224°
2026-04-26 18:41 10.90267 -75.03598 4083 ft 104 kts 227°
2026-04-26 18:41 10.89671 -75.04027 4115 ft 106 kts 218°
2026-04-26 18:41 10.89039 -75.04421 4147 ft 106 kts 217°
2026-04-26 18:42 10.88401 -75.04781 4183 ft 107 kts 212°
2026-04-26 18:42 10.87736 -75.05131 4187 ft 108 kts 215°
2026-04-26 18:42 10.87082 -75.05505 4235 ft 107 kts 211°
2026-04-26 18:42 10.86371 -75.05754 4239 ft 110 kts 200°
2026-04-26 18:43 10.85618 -75.05932 4250 ft 111 kts 198°
2026-04-26 18:43 10.84861 -75.06127 4225 ft 113 kts 199°
2026-04-26 18:43 10.84116 -75.06331 4239 ft 110 kts 200°
2026-04-26 18:43 10.83349 -75.06497 4198 ft 114 kts 195°
2026-04-26 18:44 10.82572 -75.06585 4247 ft 110 kts 191°
2026-04-26 18:44 10.81807 -75.06706 4212 ft 113 kts 192°
2026-04-26 18:44 10.81028 -75.06761 4193 ft 113 kts 190°
2026-04-26 18:44 10.80232 -75.06828 4143 ft 115 kts 188°
2026-04-26 18:45 10.79440 -75.06793 4129 ft 117 kts 178°
2026-04-26 18:45 10.78628 -75.06676 4071 ft 118 kts 176°
2026-04-26 18:45 10.77825 -75.06536 4046 ft 117 kts 174°
2026-04-26 18:45 10.77034 -75.06352 4087 ft 112 kts 174°
2026-04-26 18:46 10.76263 -75.06225 4076 ft 114 kts 175°
2026-04-26 18:46 10.75479 -75.06083 4066 ft 114 kts 177°
2026-04-26 18:46 10.74687 -75.05996 4043 ft 114 kts 179°
2026-04-26 18:46 10.73906 -75.05847 4030 ft 116 kts 172°
2026-04-26 18:47 10.73122 -75.05675 4003 ft 115 kts 172°
2026-04-26 18:47 10.72739 -75.05588 3993 ft 116 kts 172°
2026-04-26 18:47 10.72111 -75.05427 3947 ft 118 kts 171°
2026-04-26 18:47 10.71337 -75.05173 3956 ft 117 kts 162°
2026-04-26 18:48 10.70574 -75.04831 3932 ft 120 kts 160°
2026-04-26 18:48 10.69849 -75.04434 3945 ft 118 kts 156°
2026-04-26 18:48 10.69094 -75.04072 3891 ft 121 kts 161°
2026-04-26 18:48 10.68371 -75.03658 3893 ft 119 kts 151°
2026-04-26 18:49 10.67703 -75.03159 3878 ft 119 kts 146°
2026-04-26 18:49 10.67044 -75.02650 3888 ft 119 kts 145°
2026-04-26 18:49 10.66415 -75.02093 3876 ft 121 kts 141°
2026-04-26 18:49 10.65698 -75.01691 3825 ft 119 kts 178°
2026-04-26 18:50 10.64965 -75.01927 3782 ft 109 kts 229°
2026-04-26 18:50 10.64464 -75.02443 3890 ft 99 kts 228°
2026-04-26 18:50 10.63954 -75.02912 3944 ft 98 kts 226°
2026-04-26 18:50 10.63451 -75.03375 3998 ft 98 kts 227°
2026-04-26 18:51 10.62938 -75.03853 4000 ft 102 kts 227°
2026-04-26 18:51 10.62409 -75.04342 4006 ft 104 kts 227°
2026-04-26 18:51 10.61876 -75.04841 4012 ft 105 kts 227°
2026-04-26 18:51 10.61574 -75.05476 4009 ft 102 kts 261°
2026-04-26 18:52 10.61223 -75.06096 4005 ft 104 kts 234°
2026-04-26 18:52 10.60757 -75.06662 4011 ft 105 kts 233°
2026-04-26 18:52 10.60278 -75.07219 4008 ft 105 kts 232°
2026-04-26 18:52 10.59787 -75.07775 4014 ft 106 kts 232°
2026-04-26 18:53 10.59291 -75.08330 4013 ft 106 kts 231°
2026-04-26 18:53 10.58796 -75.08878 4013 ft 106 kts 230°
2026-04-26 18:53 10.58294 -75.09434 4004 ft 108 kts 232°
2026-04-26 18:53 10.57783 -75.09997 4010 ft 108 kts 231°
2026-04-26 18:54 10.57276 -75.10555 4004 ft 107 kts 231°
2026-04-26 18:54 10.56771 -75.11110 4005 ft 106 kts 231°
2026-04-26 18:54 10.56270 -75.11661 4003 ft 106 kts 231°
2026-04-26 18:54 10.55775 -75.12206 3992 ft 104 kts 231°
2026-04-26 18:55 10.55283 -75.12748 3996 ft 105 kts 232°
2026-04-26 18:55 10.54789 -75.13291 3997 ft 104 kts 232°
2026-04-26 18:55 10.54304 -75.13825 3995 ft 103 kts 231°
2026-04-26 18:55 10.53818 -75.14360 3994 ft 104 kts 232°
2026-04-26 18:56 10.53323 -75.14906 3999 ft 106 kts 231°
2026-04-26 18:56 10.52824 -75.15456 4001 ft 106 kts 232°
2026-04-26 18:56 10.52326 -75.16005 4006 ft 107 kts 232°
2026-04-26 18:56 10.51816 -75.16567 4009 ft 109 kts 231°
2026-04-26 18:57 10.51307 -75.17125 4007 ft 107 kts 232°
2026-04-26 18:57 10.50972 -75.17493 3996 ft 105 kts 231°
2026-04-26 18:57 10.50308 -75.18224 3996 ft 106 kts 231°
2026-04-26 18:57 10.49806 -75.18775 4007 ft 106 kts 231°
2026-04-26 18:58 10.49301 -75.19332 4009 ft 107 kts 232°
2026-04-26 18:58 10.48800 -75.19884 4006 ft 106 kts 230°
2026-04-26 18:58 10.48299 -75.20436 4002 ft 107 kts 231°
2026-04-26 18:58 10.47790 -75.20997 4009 ft 108 kts 231°
2026-04-26 18:59 10.47289 -75.21546 4008 ft 106 kts 231°
2026-04-26 18:59 10.46788 -75.22096 4005 ft 106 kts 231°
2026-04-26 18:59 10.46287 -75.22649 3998 ft 106 kts 231°
2026-04-26 18:59 10.45789 -75.23195 3995 ft 104 kts 232°
2026-04-26 19:00 10.45299 -75.23734 4004 ft 104 kts 232°
2026-04-26 19:00 10.44807 -75.24275 4002 ft 104 kts 231°
2026-04-26 19:00 10.44327 -75.24802 4002 ft 104 kts 232°
2026-04-26 19:00 10.43835 -75.25344 3997 ft 105 kts 231°
2026-04-26 19:01 10.43346 -75.25883 3999 ft 105 kts 231°
2026-04-26 19:01 10.42848 -75.26431 4006 ft 105 kts 231°
2026-04-26 19:01 10.42349 -75.26978 4006 ft 106 kts 231°
2026-04-26 19:01 10.41849 -75.27529 4006 ft 106 kts 231°
2026-04-26 19:02 10.41349 -75.28078 4006 ft 106 kts 231°
2026-04-26 19:02 10.40847 -75.28630 3994 ft 106 kts 232°
2026-04-26 19:02 10.40346 -75.29180 4004 ft 106 kts 231°
2026-04-26 19:02 10.40017 -75.29541 4006 ft 105 kts 231°
2026-04-26 19:03 10.39357 -75.30267 4006 ft 106 kts 232°
2026-04-26 19:03 10.38853 -75.30821 4006 ft 106 kts 232°
2026-04-26 19:03 10.38353 -75.31371 4000 ft 106 kts 232°
2026-04-26 19:03 10.37847 -75.31926 4008 ft 108 kts 232°
2026-04-26 19:04 10.37341 -75.32483 4008 ft 107 kts 231°
2026-04-26 19:04 10.36833 -75.33041 4005 ft 108 kts 232°
2026-04-26 19:04 10.36320 -75.33605 4011 ft 109 kts 231°
2026-04-26 19:04 10.35808 -75.34168 4000 ft 108 kts 231°
2026-04-26 19:05 10.34782 -75.35295 4009 ft 108 kts 231°
2026-04-26 19:05 10.34281 -75.35845 4012 ft 108 kts 232°
2026-04-26 19:05 10.33768 -75.36410 3998 ft 109 kts 231°
2026-04-26 19:06 10.33258 -75.36970 4009 ft 107 kts 231°
2026-04-26 19:06 10.32749 -75.37528 4010 ft 108 kts 231°
2026-04-26 19:06 10.32239 -75.38089 3998 ft 108 kts 231°
2026-04-26 19:06 10.31731 -75.38647 4008 ft 107 kts 231°
2026-04-26 19:07 10.31225 -75.39202 4007 ft 107 kts 231°
2026-04-26 19:07 10.30720 -75.39756 4004 ft 106 kts 230°
2026-04-26 19:07 10.30225 -75.40296 3998 ft 103 kts 233°
2026-04-26 19:07 10.29747 -75.40862 3999 ft 106 kts 234°
2026-04-26 19:08 10.29282 -75.41422 4044 ft 102 kts 232°
2026-04-26 19:08 10.28795 -75.41962 4038 ft 104 kts 232°
2026-04-26 19:08 10.28275 -75.42493 4025 ft 106 kts 228°
2026-04-26 19:08 10.27736 -75.42994 4057 ft 105 kts 227°
2026-04-26 19:09 10.27204 -75.43516 4046 ft 107 kts 230°
2026-04-26 19:09 10.26690 -75.44055 4061 ft 107 kts 229°
2026-04-26 19:09 10.26154 -75.44598 4045 ft 108 kts 227°
2026-04-26 19:09 10.25614 -75.45116 4050 ft 107 kts 231°
2026-04-26 19:10 10.25109 -75.45674 4059 ft 106 kts 231°
2026-04-26 19:10 10.24605 -75.46228 4050 ft 106 kts 232°
2026-04-26 19:10 10.24102 -75.46775 4074 ft 105 kts 231°
2026-04-26 19:10 10.23619 -75.47318 4080 ft 105 kts 233°
2026-04-26 19:11 10.23131 -75.47877 4069 ft 107 kts 231°
2026-04-26 19:11 10.22619 -75.48413 4090 ft 105 kts 230°
2026-04-26 19:11 10.22133 -75.48968 4110 ft 105 kts 234°
2026-04-26 19:11 10.21646 -75.49513 4163 ft 103 kts 232°
2026-04-26 19:12 10.21175 -75.50071 4160 ft 104 kts 233°
2026-04-26 19:12 10.20692 -75.50613 4190 ft 105 kts 228°
2026-04-26 19:12 10.20022 -75.50948 4153 ft 115 kts 192°
2026-04-26 19:12 10.19222 -75.50844 4197 ft 112 kts 177°
2026-04-26 19:13 10.18453 -75.50709 4211 ft 114 kts 176°
2026-04-26 19:13 10.17674 -75.50572 4205 ft 113 kts 177°
2026-04-26 19:13 10.16881 -75.50459 4170 ft 115 kts 178°
2026-04-26 19:13 10.16110 -75.50327 4205 ft 112 kts 176°
2026-04-26 19:14 10.15367 -75.50434 4073 ft 114 kts 218°
2026-04-26 19:14 10.15047 -75.51106 4092 ft 101 kts 272°
2026-04-26 19:14 10.15343 -75.51758 4009 ft 111 kts 313°
2026-04-26 19:14 10.15554 -75.51914 4010 ft 112 kts 327°
2026-04-26 19:15 10.16808 -75.51885 4035 ft 115 kts 14°
2026-04-26 19:15 10.17565 -75.51622 4031 ft 116 kts 13°
2026-04-26 19:15 10.18344 -75.51389 4035 ft 115 kts 13°
2026-04-26 19:15 10.19112 -75.51188 4013 ft 115 kts
2026-04-26 19:16 10.19895 -75.51054 4029 ft 113 kts
2026-04-26 19:16 10.20672 -75.50957 4023 ft 113 kts
2026-04-26 19:16 10.21451 -75.50838 4049 ft 112 kts
2026-04-26 19:16 10.22216 -75.50739 4023 ft 111 kts 352°
2026-04-26 19:17 10.23011 -75.50715 3968 ft 115 kts 356°
2026-04-26 19:17 10.23791 -75.50712 4009 ft 111 kts 356°
2026-04-26 19:17 10.24571 -75.50692 3991 ft 113 kts 356°
2026-04-26 19:17 10.25345 -75.50714 4004 ft 111 kts 351°
2026-04-26 19:18 10.25986 -75.50795 3990 ft 111 kts 349°
2026-04-26 19:18 10.26523 -75.50723 3930 ft 121 kts 23°
2026-04-26 19:18 10.27075 -75.50065 3961 ft 119 kts 66°
2026-04-26 19:19 10.27205 -75.49257 3951 ft 123 kts 94°
2026-04-26 19:19 10.27015 -75.48400 3949 ft 120 kts 113°
2026-04-26 19:19 10.26614 -75.47679 3923 ft 121 kts 133°
2026-04-26 19:19 10.25949 -75.47189 3907 ft 114 kts 167°
2026-04-26 19:20 10.25188 -75.47143 3905 ft 111 kts 189°
2026-04-26 19:20 10.24927 -75.47158 3889 ft 112 kts 188°
2026-04-26 19:20 10.23663 -75.47240 3912 ft 108 kts 193°
2026-04-26 19:20 10.22923 -75.47396 3879 ft 108 kts 208°
2026-04-26 19:21 10.22400 -75.47897 3852 ft 103 kts 244°
2026-04-26 19:21 10.22082 -75.48526 3903 ft 99 kts 250°
2026-04-26 19:21 10.21880 -75.48947 3929 ft 99 kts 245°
2026-04-26 19:21 10.21479 -75.49546 3904 ft 103 kts 243°
2026-04-26 19:22 10.21098 -75.50156 3916 ft 102 kts 237°
2026-04-26 19:22 10.20643 -75.50720 3884 ft 106 kts 221°
2026-04-26 19:22 10.19941 -75.50877 3964 ft 107 kts 179°
2026-04-26 19:22 10.19168 -75.50762 3902 ft 114 kts 178°
2026-04-26 19:23 10.18391 -75.50657 3937 ft 112 kts 178°
2026-04-26 19:23 10.17614 -75.50513 3917 ft 115 kts 169°
2026-04-26 19:23 10.16858 -75.50345 3975 ft 109 kts 175°
2026-04-26 19:23 10.16104 -75.50203 3977 ft 110 kts 177°
2026-04-26 19:24 10.15350 -75.50076 3997 ft 110 kts 174°
2026-04-26 19:24 10.14614 -75.50131 3970 ft 106 kts 214°
2026-04-26 19:24 10.14499 -75.51340 3982 ft 105 kts 319°
2026-04-26 19:25 10.15221 -75.51508 3959 ft 114 kts
2026-04-26 19:25 10.15718 -75.51293 3932 ft 120 kts 34°
2026-04-26 19:25 10.16488 -75.50504 3956 ft 118 kts 30°
2026-04-26 19:25 10.17265 -75.50358 3977 ft 108 kts 354°
2026-04-26 19:26 10.18012 -75.50416 3924 ft 113 kts 346°
2026-04-26 19:26 10.18735 -75.50588 4058 ft 98 kts 346°
2026-04-26 19:26 10.19440 -75.50520 4075 ft 102 kts
2026-04-26 19:26 10.20123 -75.50482 4098 ft 100 kts 350°
2026-04-26 19:27 10.20796 -75.50524 4177 ft 95 kts 352°
2026-04-26 19:27 10.21482 -75.50559 4122 ft 103 kts 355°
2026-04-26 19:27 10.22168 -75.50533 4177 ft 97 kts 358°
2026-04-26 19:27 10.22877 -75.50443 4097 ft 102 kts
2026-04-26 19:28 10.23544 -75.50454 4131 ft 96 kts 345°
2026-04-26 19:28 10.24204 -75.50630 4087 ft 98 kts 346°
2026-04-26 19:28 10.24883 -75.50672 4036 ft 100 kts 355°
2026-04-26 19:28 10.25577 -75.50649 3934 ft 97 kts 352°
2026-04-26 19:29 10.26248 -75.50663 3846 ft 94 kts 355°
2026-04-26 19:29 10.26921 -75.50651 3682 ft 97 kts 352°
2026-04-26 19:29 10.27562 -75.50715 3570 ft 93 kts 347°
2026-04-26 19:29 10.28187 -75.50829 3444 ft 89 kts 343°
2026-04-26 19:30 10.28809 -75.50936 3244 ft 93 kts 350°
2026-04-26 19:30 10.29455 -75.50950 3085 ft 94 kts 355°
2026-04-26 19:30 10.30102 -75.50911 2957 ft 92 kts 358°
2026-04-26 19:30 10.30518 -75.50898 2857 ft 91 kts 356°
2026-04-26 19:31 10.31361 -75.50866 2637 ft 90 kts
2026-04-26 19:31 10.31991 -75.50809 2482 ft 88 kts 352°
2026-04-26 19:31 10.32610 -75.50843 2319 ft 90 kts 350°
2026-04-26 19:31 10.33230 -75.50873 2152 ft 92 kts 352°
2026-04-26 19:32 10.33848 -75.50889 2039 ft 88 kts 353°
2026-04-26 19:32 10.34464 -75.50945 1888 ft 87 kts 347°
2026-04-26 19:32 10.35080 -75.51043 1694 ft 90 kts 344°
2026-04-26 19:32 10.35680 -75.51167 1554 ft 88 kts 341°
2026-04-26 19:33 10.36265 -75.51307 1455 ft 85 kts 342°
2026-04-26 19:33 10.36856 -75.51429 1306 ft 86 kts 344°
2026-04-26 19:33 10.37468 -75.51479 1102 ft 94 kts 355°
2026-04-26 19:33 10.38065 -75.51444 1021 ft 85 kts 359°
2026-04-26 19:34 10.38666 -75.51386 862 ft 86 kts 357°
2026-04-26 19:34 10.39261 -75.51383 766 ft 81 kts 354°
2026-04-26 19:34 10.39849 -75.51383 686 ft 87 kts 355°
2026-04-26 19:34 10.40458 -75.51375 629 ft 88 kts 356°
2026-04-26 19:35 10.41068 -75.51357 568 ft 84 kts 357°
2026-04-26 19:35 10.41638 -75.51342 419 ft 83 kts 356°
2026-04-26 19:35 10.42191 -75.51349 325 ft 73 kts 354°
2026-04-26 19:35 10.42664 -75.51338 176 ft 71 kts 355°
2026-04-26 19:36 10.43175 -75.51329 76 ft 67 kts 358°
2026-04-26 19:36 10.43451 -75.51315 47 ft 53 kts
2026-04-26 19:36 10.43843 -75.51309 46 ft 35 kts
2026-04-26 19:36 10.44077 -75.51298 46 ft 33 kts
2026-04-26 19:37 10.44306 -75.51287 46 ft 32 kts
2026-04-26 19:37 10.44528 -75.51279 46 ft 31 kts
2026-04-26 19:37 10.44636 -75.51271 46 ft 0 kts 11°
2026-04-26 19:37 10.44670 -75.51249 46 ft 12 kts 71°
2026-04-26 19:38 10.44666 -75.51150 46 ft 15 kts 107°
2026-04-26 19:38 10.44651 -75.51134 46 ft 2 kts 168°
2026-04-26 19:38 10.44636 -75.51122 46 ft 4 kts 99°
2026-04-26 19:38 10.44636 -75.51107 46 ft 0 kts 92°